Theta_e
315 315 315 315 316 315 315 315 315 315 317 319 319 319 316 316 314 301 296 307 311 315 313 302 298 298 297 293 294 293 285 279 280 281 277 282 280 283 286 283 284 285 285 286 289
314 314 314 314 315 315 315 314 314 315 317 318 318 316 314 313 299 298 308 317 315 311 298 296 293 293 288 290 291 284 280 278 283 283 281 281 281 281 281 281 281 283 286 287 287
313 313 313 313 314 314 315 315 316 317 318 318 317 315 313 304 294 294 311 314 313 306 299 296 293 290 285 287 287 284 278 282 284 284 283 280 279 282 281 278 281 281 283 286 286
312 312 312 313 313 314 314 315 316 317 317 318 316 315 309 297 283 294 309 313 311 302 298 294 292 286 283 281 285 280 284 284 284 285 283 280 282 279 279 279 283 284 284 285 285
310 311 311 312 313 313 314 314 315 316 316 318 314 313 297 287 286 294 306 307 303 300 295 292 289 286 282 283 283 281 283 284 285 284 283 284 280 280 280 283 285 285 285 284 284
310 310 310 311 312 312 313 313 314 314 314 316 312 306 291 283 292 291 297 302 300 298 295 293 290 290 285 284 282 284 284 284 285 284 285 281 280 283 282 286 286 286 284 285 285
309 309 310 310 311 312 312 313 313 313 312 311 307 294 288 285 290 290 294 297 300 299 294 295 294 290 288 284 288 285 283 285 287 286 284 288 281 278 284 286 285 285 286 286 286
308 309 309 310 311 311 311 313 308 310 310 310 305 290 284 290 289 291 290 291 293 297 298 298 296 291 288 288 288 285 283 278 282 288 287 285 275 282 285 284 284 285 285 286 286
308 308 309 309 310 310 311 312 308 309 308 307 289 287 282 296 288 289 288 288 289 289 289 292 293 288 287 283 278 279 275 276 278 283 282 280 274 281 284 284 283 283 284 285 285
308 307 308 309 310 312 312 308 305 299 293 291 289 284 285 283 287 288 287 288 286 286 286 284 282 279 277 277 273 276 274 276 274 278 278 277 276 280 282 282 281 281 280 281 283
307 307 307 308 310 307 296 290 288 286 285 280 280 281 283 287 287 286 286 285 285 281 276 279 277 273 273 276 277 276 275 273 275 279 277 274 275 278 280 278 279 279 278 279 279
307 307 307 309 310 303 290 286 284 284 280 284 283 283 285 284 281 285 287 282 280 276 276 277 274 275 278 280 279 277 275 274 276 278 276 273 274 277 276 276 277 278 276 276 278
306 307 307 309 306 293 288 287 293 290 281 282 283 281 282 284 280 281 283 280 277 276 274 274 275 279 279 277 278 276 275 275 274 277 274 274 274 273 276 276 276 277 278 277 277
306 306 306 307 295 288 285 290 294 292 279 280 280 282 284 283 280 284 283 280 277 275 274 274 277 278 277 276 277 275 278 278 278 275 266 275 266 273 274 274 275 277 275 277 277
304 304 305 300 288 287 288 294 292 289 270 281 280 285 283 281 280 281 283 281 276 275 274 273 273 275 276 277 278 277 279 279 278 274 270 271 264 271 273 274 275 276 276 277 278
304 304 302 294 289 290 293 291 289 279 270 278 280 279 279 279 279 280 279 281 278 277 276 273 274 274 275 278 279 280 277 277 275 273 262 266 267 270 272 276 276 278 278 278 278
304 303 296 294 287 292 291 288 278 272 279 278 276 278 277 276 277 278 276 275 276 273 272 274 273 274 276 276 278 278 274 264 265 263 265 269 265 273 275 277 278 279 279 279 279
304 299 295 293 291 291 288 282 270 275 276 278 277 277 275 276 275 276 275 274 273 274 270 270 271 273 275 273 274 275 273 266 261 264 266 268 266 275 276 277 278 279 279 279 278
299 288 289 290 292 290 284 270 275 278 280 277 276 274 274 275 274 273 273 273 275 276 275 270 272 273 276 274 274 272 271 272 259 251 260 267 271 276 276 276 278 278 278 277 278
286 284 284 290 290 287 279 278 277 281 279 278 278 277 273 273 273 273 273 276 276 276 275 275 270 273 274 274 274 273 275 267 263 262 259 266 266 273 276 277 276 278 279 280 279
288 283 286 289 289 282 274 274 280 282 280 279 278 276 276 275 274 271 274 276 276 274 277 274 273 270 273 271 270 269 269 269 267 266 264 261 269 275 277 279 278 280 281 282 281
287 284 286 289 280 267 272 276 284 280 279 279 278 279 277 276 275 273 275 278 278 277 276 277 271 265 271 270 271 271 271 271 268 265 264 265 270 278 278 279 278 279 281 281 282
285 286 289 286 274 271 276 279 280 279 279 279 279 279 277 278 274 275 274 277 278 278 275 276 270 264 270 271 271 269 271 272 265 265 263 266 274 277 276 277 278 278 278 280 281
288 284 285 286 283 279 275 276 276 280 280 280 279 278 278 276 277 274 276 278 277 276 283 280 269 272 275 275 272 267 269 271 269 263 268 271 277 280 278 276 277 278 278 279 279
289 285 284 279 280 281 280 280 278 279 278 279 277 278 279 277 275 273 276 276 276 279 278 275 268 268 268 271 270 271 272 271 270 274 271 278 275 280 281 282 280 281 280 278 279
285 284 284 282 281 280 282 280 280 280 279 278 277 278 279 281 281 279 278 276 278 274 275 274 266 266 266 267 271 271 272 272 273 275 275 277 276 283 282 280 280 279 281 280 280
285 285 285 285 281 279 280 281 281 281 282 282 281 279 277 279 282 281 282 279 279 275 273 269 266 265 272 264 267 271 271 274 277 276 277 273 278 281 281 281 281 281 280 281 282
Wind_Speed
12 13 13 13 13 13 12 13 14 14 13 12 11 7 8 7 10 26 27 16 16 22 5 3 13 5 10 9 9 6 6 5 6 3 3 4 4 3 4 7 6 5 3 4 10
11 12 13 13 13 14 14 14 15 14 13 12 11 5 4 6 6 27 25 29 22 18 9 5 7 17 9 8 8 9 6 6 6 4 3 5 4 2 3 4 7 8 10 7 8
10 11 11 12 12 13 14 14 14 14 14 13 12 7 4 2 8 10 29 28 22 9 7 6 8 9 11 7 12 7 5 2 8 9 6 4 3 4 2 7 5 4 5 10 10
11 11 11 12 13 14 15 15 15 14 14 15 12 9 12 7 8 8 26 21 22 11 13 13 7 10 9 12 9 11 15 8 6 8 3 4 2 5 7 4 4 5 3 4 8
12 11 11 11 12 13 15 16 15 14 13 12 10 12 9 10 6 9 18 14 9 21 15 9 16 6 11 7 12 12 8 11 13 14 13 10 11 5 6 4 3 5 6 7 5
11 11 12 13 13 14 14 15 13 12 12 12 12 9 8 14 3 9 10 15 15 14 19 14 12 13 14 7 8 6 14 8 9 8 5 6 2 1 2 2 3 2 4 4 4
14 14 12 12 12 13 14 14 11 10 8 7 7 6 12 5 2 7 8 6 8 14 16 7 3 6 5 10 8 10 9 8 3 1 3 2 4 3 3 4 7 1 0 1 0
14 13 13 13 13 14 15 13 7 6 5 5 7 7 6 1 1 8 9 5 7 5 6 4 9 10 6 8 4 1 4 4 6 4 3 2 3 3 6 4 4 2 3 2 3
14 15 13 12 12 13 14 10 8 5 8 4 7 7 3 4 6 5 5 4 5 3 8 4 7 6 2 2 3 8 4 4 2 6 3 5 4 4 5 5 5 5 4 4 4
13 13 12 13 14 15 13 4 7 6 8 3 4 5 6 4 5 5 4 4 5 3 6 11 8 6 5 7 2 1 5 3 3 4 4 3 2 3 6 5 6 6 5 5 4
11 12 13 14 14 13 7 4 6 5 12 4 0 3 3 8 3 7 4 4 5 10 7 7 12 8 7 5 5 5 5 4 4 4 2 2 2 7 7 6 7 8 7 6 7
14 14 13 13 13 10 4 6 3 1 6 3 1 2 1 1 2 9 5 6 8 5 5 8 7 4 2 5 8 6 3 4 3 5 2 3 8 9 9 7 8 8 8 8 5
13 14 14 14 5 6 5 3 2 3 5 2 2 2 2 3 3 7 5 3 6 8 8 7 1 3 3 6 6 5 4 2 1 5 1 7 7 5 6 5 7 8 8 7 10
15 14 14 15 7 1 3 2 3 2 7 2 2 4 3 2 5 2 2 5 6 4 4 6 3 1 4 3 2 3 2 1 3 4 2 6 7 6 6 9 9 12 10 12 10
12 13 14 12 4 3 1 3 3 4 6 2 3 2 2 3 1 5 3 6 5 4 2 0 2 3 4 1 2 1 2 3 2 3 4 5 5 9 2 8 15 15 15 15 14
12 12 8 5 4 2 4 2 4 12 8 2 1 2 2 4 4 3 2 8 5 4 6 4 1 2 1 1 1 0 1 4 3 2 5 5 5 9 7 11 5 11 16 17 14
11 11 6 1 1 3 2 5 10 6 3 4 1 2 1 1 2 3 1 1 4 4 1 1 3 1 1 2 3 4 5 5 8 7 6 1 2 16 7 9 8 12 16 15 14
9 7 6 2 3 2 4 9 5 4 7 2 2 2 2 2 1 2 1 3 2 5 4 4 6 5 2 1 3 2 5 7 5 3 6 4 9 11 8 6 8 8 7 9 13
5 3 2 4 5 3 8 5 12 9 5 9 2 3 3 1 2 1 4 5 8 11 10 6 3 1 1 2 3 3 3 4 9 1 4 5 10 14 6 10 6 9 8 11 13
2 2 2 5 3 5 8 8 6 5 8 3 9 6 7 4 3 4 4 4 4 6 2 6 2 0 2 1 3 3 5 4 4 2 6 6 8 10 6 10 9 10 14 13 10
2 2 1 4 2 7 6 10 8 6 5 8 9 5 6 7 8 7 6 3 4 2 4 3 4 1 1 10 11 4 3 2 3 5 7 3 9 11 10 11 13 17 15 15 14
2 1 3 2 4 2 5 9 6 5 1 3 3 7 10 9 9 5 10 8 7 10 10 6 6 5 9 1 2 2 6 7 7 8 4 3 16 5 9 7 8 12 12 10 12
2 2 2 2 5 4 5 4 3 4 6 8 9 7 4 10 2 10 7 1 8 9 10 9 4 3 9 3 3 6 7 4 4 4 10 7 13 4 6 8 9 11 10 10 11
4 1 2 2 1 2 4 5 4 3 5 5 3 4 3 6 3 4 6 2 4 4 1 6 3 10 15 12 8 8 9 15 8 5 5 24 26 17 9 10 9 12 12 12 13
1 2 1 3 5 5 0 3 4 6 5 6 3 8 10 5 4 7 4 1 2 5 3 6 8 3 5 5 3 6 8 18 21 24 16 28 23 29 23 21 21 17 10 9 14
1 1 2 1 5 2 8 4 8 3 6 5 7 7 9 13 14 11 8 6 8 3 7 5 6 3 7 5 9 17 13 11 26 17 28 23 36 11 10 9 15 16 16 17 18
1 1 2 2 3 3 4 6 4 6 4 6 7 2 5 12 11 3 4 2 5 11 11 9 7 5 25 4 9 25 24 30 27 18 18 25 42 8 12 19 24 18 17 21 22
Wind_Direction
44 42 41 35 30 27 20 12 11 12 6 353 335 323 318 331 317 27 33 336 339 331 43 61 33 40 45 49 31 340 62 54 26 17 115 172 81 18 344 70 53 51 37 3 344
41 38 37 33 29 23 15 10 7 8 7 353 342 301 302 4 42 24 354 354 359 3 41 48 30 45 56 23 30 46 64 44 360 22 103 73 74 85 55 48 58 45 29 44 16
33 33 33 30 26 20 12 7 3 2 5 6 11 53 84 24 52 343 346 358 11 10 66 77 70 66 56 39 10 37 75 154 55 70 62 65 47 21 128 50 24 52 28 23 38
20 20 18 13 13 13 10 5 2 2 1 9 11 30 42 52 71 304 337 358 18 28 64 51 35 66 77 60 27 91 50 50 11 38 47 49 61 58 35 62 22 12 7 48 20
17 9 10 2 3 3 3 1 356 356 355 6 21 38 44 51 55 310 335 3 6 45 42 51 43 65 76 92 75 73 84 76 84 82 78 70 61 84 59 49 17 14 25 37 22
12 4 359 353 353 356 355 354 348 351 353 1 28 59 62 73 321 331 352 30 26 42 38 52 96 99 77 64 52 122 107 99 60 63 68 59 347 107 36 260 308 46 39 13 10
1 357 355 349 350 347 348 351 348 343 356 34 35 74 58 110 65 348 19 34 43 67 65 33 22 79 137 102 133 148 86 108 81 116 150 230 33 30 218 305 300 322 332 178 253
2 359 351 347 347 344 344 351 352 5 14 52 40 63 79 53 167 20 346 17 19 48 86 49 82 84 57 113 125 137 69 51 343 335 115 267 256 223 201 231 281 322 186 199 180
1 355 352 347 343 337 337 337 7 27 42 355 41 87 63 352 37 326 34 359 307 39 39 69 62 75 86 52 58 22 94 42 105 28 333 27 253 222 200 233 293 314 241 210 200
3 358 351 347 342 335 326 313 10 25 3 43 60 51 13 330 315 336 342 19 40 343 28 31 53 66 25 29 27 75 102 61 64 325 53 39 331 253 223 231 259 264 252 241 229
9 1 352 347 341 347 359 20 14 349 38 77 57 105 357 302 278 360 355 1 19 53 36 13 58 44 326 344 77 76 66 72 336 336 29 28 260 237 242 257 262 260 253 239 227
3 1 357 347 340 357 44 71 43 171 70 14 96 87 86 302 12 350 16 64 44 41 335 36 54 323 282 43 60 47 55 10 302 350 359 342 266 229 210 226 215 230 243 237 227
355 354 348 343 2 44 65 70 318 319 80 8 41 55 300 38 108 322 28 88 87 47 20 93 163 338 72 32 41 35 63 345 292 328 31 329 284 219 224 211 211 225 224 226 215
350 349 348 333 46 296 51 326 346 322 64 299 355 356 336 44 37 319 47 117 42 136 93 79 331 71 67 58 356 56 323 30 7 34 283 29 280 275 231 238 213 225 215 221 215
354 349 352 27 154 63 155 314 307 54 15 303 348 287 358 50 90 13 2 38 102 107 120 259 26 20 58 28 330 140 10 40 37 66 45 355 57 271 44 251 235 225 220 217 212
360 354 352 19 47 357 311 349 42 44 265 346 355 352 15 19 15 304 42 51 141 95 52 112 151 63 68 42 40 347 17 34 57 76 27 262 111 278 197 218 239 219 216 212 208
348 356 30 23 151 319 343 36 36 128 325 283 297 39 34 353 29 15 357 121 153 81 295 132 138 118 58 72 2 58 45 337 354 9 224 119 32 247 251 237 224 218 219 215 209
348 12 7 36 334 346 52 49 112 246 225 78 100 92 222 128 333 349 15 282 241 97 102 145 316 164 145 137 195 86 130 152 236 257 272 13 241 252 216 237 227 237 231 208 206
5 355 46 347 337 22 69 81 204 206 148 147 87 167 277 172 123 30 228 236 212 182 159 133 247 114 76 135 135 197 177 144 101 61 32 240 282 289 232 251 243 230 219 221 216
75 37 264 311 12 59 79 233 233 189 130 152 183 157 213 199 155 167 194 209 245 209 352 194 94 222 143 131 34 169 149 73 0 315 295 283 280 247 277 245 222 230 223 223 208
58 43 306 343 66 57 175 222 233 217 154 166 206 173 196 182 191 205 226 257 152 94 23 129 101 269 70 203 176 154 199 79 115 159 194 282 252 217 234 225 212 225 223 217 210
120 267 330 344 70 347 179 197 218 175 105 229 171 201 185 171 200 238 217 223 162 155 170 200 145 181 204 121 22 235 200 161 140 231 238 155 258 243 243 272 233 236 225 222 215
157 307 352 41 175 245 285 260 257 150 194 189 221 201 191 185 245 191 198 267 165 169 162 190 240 357 333 358 18 217 198 175 94 63 199 180 254 192 228 254 245 250 240 232 226
123 250 340 49 15 190 163 244 241 254 235 186 177 122 141 216 241 232 236 186 168 193 88 132 181 178 234 225 134 182 196 196 157 162 185 230 267 242 239 237 250 241 240 234 221
94 199 229 207 258 215 89 122 170 215 228 185 228 215 185 211 185 226 245 201 163 203 144 147 229 202 264 279 241 210 185 192 206 220 204 263 228 247 241 240 232 231 236 226 229
109 155 74 299 326 187 206 228 224 273 157 251 263 220 229 237 216 233 182 181 205 111 165 168 255 113 278 286 266 264 231 227 224 228 244 269 269 244 284 249 251 231 230 228 231
117 114 109 180 137 136 229 213 248 140 263 246 215 236 237 245 255 276 231 213 195 164 182 159 153 107 264 11 330 276 198 216 233 210 217 234 248 286 252 246 245 241 230 231 233